• In Hungary
  • List of Countries
  • For 7 days
  • Water Temperature
  • Satellite Maps
  • Weather Map
  • News
  • Weather Widgets
  • user-avatar
    Login

    Hourly Weather Kerchik

    Today, 20 August, Monday

    Time Temperature Precipitation Wind Pressure Humidity
    00:00 +18°C° 0 mm 3 mps 747 mmHg 39%
    01:00 +17°C° 0 mm 3 mps 747 mmHg 41%
    02:00 +17°C° 0 mm 2 mps 747 mmHg 43%
    03:00 +15°C° 0 mm 1 mps 747 mmHg 48%
    04:00 +15°C° 0 mm 2 mps 747 mmHg 48%
    05:00 +15°C° 0 mm 2 mps 747 mmHg 49%
    06:00 +15°C° 0 mm 2 mps 747 mmHg 49%
    07:00 +18°C° 0 mm 3 mps 747 mmHg 43%
    08:00 +20°C° 0 mm 3 mps 748 mmHg 37%
    09:00 +23°C° 0 mm 4 mps 748 mmHg 31%
    10:00 +25°C° 0 mm 4 mps 748 mmHg 28%
    11:00 +26°C° 0 mm 4 mps 747 mmHg 26%
    12:00 +28°C° 0 mm 5 mps 747 mmHg 23%
    13:00 +28°C° 0 mm 5 mps 747 mmHg 22%
    14:00 +29°C° 0 mm 5 mps 747 mmHg 21%
    15:00 +30°C° 0 mm 5 mps 746 mmHg 20%
    16:00 +29°C° 0 mm 4 mps 746 mmHg 21%
    17:00 +29°C° 0 mm 4 mps 746 mmHg 22%
    18:00 +28°C° 0 mm 4 mps 745 mmHg 23%
    19:00 +26°C° 0 mm 4 mps 745 mmHg 26%
    20:00 +24°C° 0 mm 3 mps 745 mmHg 29%
    21:00 +21°C° 0 mm 3 mps 745 mmHg 32%
    22:00 +20°C° 0 mm 3 mps 745 mmHg 33%
    23:00 +20°C° 0 mm 2 mps 745 mmHg 34%

    Tomorrow, 21 August, Tuesday

    Time Temperature Precipitation Wind Pressure Humidity
    00:00 +19°C° 0 mm 2 mps 745 mmHg 35%
    01:00 +18°C° 0 mm 2 mps 745 mmHg 35%
    02:00 +18°C° 0 mm 2 mps 745 mmHg 36%
    03:00 +18°C° 0 mm 2 mps 745 mmHg 36%
    04:00 +17°C° 0 mm 2 mps 745 mmHg 37%
    05:00 +17°C° 0 mm 2 mps 745 mmHg 38%
    06:00 +17°C° 0 mm 2 mps 745 mmHg 38%
    07:00 +20°C° 0 mm 2 mps 745 mmHg 35%
    08:00 +22°C° 0 mm 3 mps 745 mmHg 31%
    09:00 +26°C° 0 mm 3 mps 745 mmHg 27%
    10:00 +27°C° 0 mm 3 mps 745 mmHg 25%
    11:00 +29°C° 0 mm 4 mps 745 mmHg 23%
    12:00 +30°C° 0 mm 4 mps 745 mmHg 20%
    13:00 +32°C° 0 mm 4 mps 744 mmHg 20%
    14:00 +33°C° 0 mm 4 mps 744 mmHg 19%
    15:00 +33°C° 0 mm 3 mps 743 mmHg 18%
    16:00 +33°C° 0 mm 3 mps 743 mmHg 19%
    17:00 +31°C° 0 mm 3 mps 743 mmHg 20%
    18:00 +31°C° 0 mm 3 mps 743 mmHg 21%
    19:00 +28°C° 0 mm 2 mps 743 mmHg 23%
    20:00 +26°C° 0 mm 2 mps 743 mmHg 26%
    21:00 +24°C° 0 mm 2 mps 743 mmHg 28%
    22:00 +23°C° 0 mm 1 mps 743 mmHg 29%
    23:00 +23°C° 0 mm 1 mps 743 mmHg 30%

    Day after tomorrow, 22 August, Wednesday

    Time Temperature Precipitation Wind Pressure Humidity
    00:00 +22°C° 0 mm 1 mps 742 mmHg 31%
    01:00 +22°C° 0 mm 1 mps 742 mmHg 32%
    02:00 +21°C° 0 mm 1 mps 742 mmHg 33%
    03:00 +21°C° 0 mm 1 mps 742 mmHg 34%
    04:00 +21°C° 0 mm 1 mps 742 mmHg 36%
    05:00 +21°C° 0 mm 1 mps 742 mmHg 38%
    06:00 +20°C° 0 mm 1 mps 742 mmHg 41%
    07:00 +23°C° 0 mm 1 mps 742 mmHg 37%
    08:00 +26°C° 0 mm 1 mps 743 mmHg 33%
    09:00 +28°C° 0 mm 1 mps 743 mmHg 29%
    10:00 +30°C° 0 mm 2 mps 743 mmHg 26%
    11:00 +31°C° 0 mm 2 mps 743 mmHg 23%
    12:00 +32°C° 0 mm 2 mps 743 mmHg 19%
    13:00 +34°C° 0 mm 3 mps 743 mmHg 19%
    14:00 +34°C° 0 mm 3 mps 742 mmHg 20%
    15:00 +35°C° 0 mm 4 mps 742 mmHg 20%
    16:00 +33°C° 0 mm 5 mps 742 mmHg 26%
    17:00 +32°C° 0 mm 5 mps 742 mmHg 32%
    18:00 +30°C° 0 mm 6 mps 743 mmHg 38%
    19:00 +28°C° 0 mm 6 mps 743 mmHg 43%
    20:00 +26°C° 0 mm 6 mps 744 mmHg 47%
    21:00 +23°C° 0 mm 6 mps 744 mmHg 52%
    22:00 +22°C° 0 mm 5 mps 744 mmHg 50%
    23:00 +21°C° 0 mm 5 mps 745 mmHg 48%

    23 August, Thursday

    Time Temperature Precipitation Wind Pressure Humidity
    00:00 +21°C° 0 mm 5 mps 745 mmHg 45%
    01:00 +20°C° 0 mm 5 mps 745 mmHg 46%
    02:00 +19°C° 0 mm 5 mps 746 mmHg 47%
    03:00 +18°C° 0 mm 4 mps 746 mmHg 47%
    04:00 +18°C° 0 mm 4 mps 746 mmHg 48%
    05:00 +17°C° 0 mm 4 mps 746 mmHg 49%
    06:00 +17°C° 0 mm 4 mps 746 mmHg 50%
    07:00 +17°C° 0 mm 5 mps 747 mmHg 45%
    08:00 +20°C° 0 mm 5 mps 747 mmHg 39%
    09:00 +22°C° 0 mm 6 mps 747 mmHg 34%
    10:00 +23°C° 0 mm 6 mps 747 mmHg 31%
    11:00 +26°C° 0 mm 6 mps 747 mmHg 27%
    12:00 +27°C° 0 mm 6 mps 747 mmHg 24%
    13:00 +27°C° 0 mm 6 mps 747 mmHg 22%
    14:00 +28°C° 0 mm 6 mps 747 mmHg 21%
    15:00 +28°C° 0 mm 5 mps 747 mmHg 19%
    16:00 +28°C° 0 mm 5 mps 747 mmHg 20%
    17:00 +27°C° 0 mm 5 mps 746 mmHg 21%
    18:00 +27°C° 0 mm 5 mps 746 mmHg 22%
    19:00 +25°C° 0 mm 5 mps 747 mmHg 26%
    20:00 +22°C° 0 mm 4 mps 747 mmHg 29%
    21:00 +20°C° 0 mm 4 mps 747 mmHg 32%
    22:00 +20°C° 0 mm 4 mps 747 mmHg 34%
    23:00 +19°C° 0 mm 4 mps 747 mmHg 36%

    24 August, Friday

    Time Temperature Precipitation Wind Pressure Humidity
    00:00 +19°C° 0 mm 5 mps 747 mmHg 38%
    01:00 +17°C° 0 mm 5 mps 747 mmHg 39%
    02:00 +17°C° 0 mm 5 mps 747 mmHg 41%
    03:00 +16°C° 0 mm 5 mps 747 mmHg 42%
    04:00 +16°C° 0 mm 5 mps 747 mmHg 43%
    05:00 +16°C° 0 mm 5 mps 747 mmHg 44%
    06:00 +15°C° 0 mm 5 mps 747 mmHg 45%
    07:00 +19°C° 0 mm 5 mps 747 mmHg 39%
    08:00 +21°C° 0 mm 6 mps 747 mmHg 34%
    09:00 +23°C° 0 mm 6 mps 747 mmHg 28%
    10:00 +26°C° 0 mm 6 mps 747 mmHg 26%
    11:00 +27°C° 0 mm 6 mps 747 mmHg 24%
    12:00 +29°C° 0 mm 6 mps 746 mmHg 21%
    13:00 +29°C° 0 mm 6 mps 746 mmHg 21%
    14:00 +30°C° 0 mm 6 mps 746 mmHg 20%
    15:00 +30°C° 0 mm 5 mps 745 mmHg 20%
    16:00 +29°C° 0 mm 5 mps 745 mmHg 21%
    17:00 +29°C° 0 mm 5 mps 745 mmHg 22%
    18:00 +28°C° 0 mm 5 mps 745 mmHg 22%
    19:00 +26°C° 0 mm 5 mps 745 mmHg 25%
    20:00 +23°C° 0 mm 4 mps 745 mmHg 27%
    21:00 +21°C° 0 mm 4 mps 745 mmHg 30%
    22:00 +20°C° 0 mm 4 mps 745 mmHg 31%
    23:00 +20°C° 0 mm 4 mps 745 mmHg 33%

    25 August, Saturday

    Time Temperature Precipitation Wind Pressure Humidity
    00:00 +19°C° 0 mm 4 mps 745 mmHg 34%
    01:00 +18°C° 0 mm 4 mps 745 mmHg 36%
    02:00 +18°C° 0 mm 4 mps 745 mmHg 37%
    03:00 +17°C° 0 mm 4 mps 745 mmHg 39%
    04:00 +17°C° 0 mm 4 mps 745 mmHg 39%
    05:00 +17°C° 0 mm 4 mps 745 mmHg 40%
    06:00 +15°C° 0 mm 4 mps 745 mmHg 40%
    07:00 +19°C° 0 mm 4 mps 745 mmHg 36%
    08:00 +21°C° 0 mm 5 mps 745 mmHg 31%
    09:00 +25°C° 0 mm 5 mps 745 mmHg 26%
    10:00 +26°C° 0 mm 5 mps 745 mmHg 24%
    11:00 +28°C° 0 mm 6 mps 745 mmHg 22%
    12:00 +29°C° 0 mm 6 mps 745 mmHg 19%
    13:00 +29°C° 0 mm 6 mps 745 mmHg 19%
    14:00 +30°C° 0 mm 6 mps 744 mmHg 18%
    15:00 +30°C° 0 mm 6 mps 744 mmHg 17%
    16:00 +29°C° 0 mm 6 mps 744 mmHg 18%
    17:00 +29°C° 0 mm 5 mps 744 mmHg 18%
    18:00 +28°C° 0 mm 5 mps 744 mmHg 19%
    19:00 +26°C° 0 mm 5 mps 744 mmHg 21%
    20:00 +23°C° 0 mm 4 mps 744 mmHg 24%
    21:00 +21°C° 0 mm 4 mps 744 mmHg 26%
    22:00 +20°C° 0 mm 4 mps 744 mmHg 27%
    23:00 +20°C° 0 mm 4 mps 743 mmHg 29%
    Show more